SCP
0 0 0 0 0 0 0 0 0 0 0 0 0 0 0 0 0 0 0 0 0 0 0 0 0 0 0 0 0 0 0 0 0 0 0 0 0 0 0 0 0 0 0 0
0 0 0 0 0 0 0 0 0 0 0 0 0 0 0 0 0 0 0 0 0 0 0 0 0 0 0 0 0 0 0 0 0 0 0 0 0 0 0 0 0 0 0 0
0 0 0 0 0 0 0 0 0 0 0 0 0 0 0 0 0 0 0 0 0 0 0 0 0 0 0 0 0 0 0 0 0 0 0 0 0 0 0 0 0 0 0 0
0 0 0 0 0 0 0 0 0 0 0 0 0 0 0 0 0 0 0 0 0 0 0 0 0 0 0 0 0 0 0 0 0 0 0 0 0 0 0 0 0 0 0 0
0 0 0 0 0 0 0 0 0 0 0 0 0 0 0 0 0 0 0 0 0 0 0 0 0 0 0 0 0 0 0 0 0 0 0 0 0 0 0 0 0 0 0 0
0 0 0 0 0 0 0 0 0 0 0 0 0 0 0 0 0 0 0 0 0 0 0 0 0 0 0 0 0 0 0 0 0 0 0 0 0 0 0 0 0 0 0 0
0 0 0 0 0 0 0 0 0 0 0 0 0 0 0 0 0 0 0 0 0 0 0 0 0 0 0 0 0 0 0 0 0 0 0 0 0 0 0 0 0 0 0 0
0 0 0 0 0 0 0 0 0 0 0 0 0 0 0 0 0 0 0 0 0 0 0 0 0 0 0 0 0 0 0 0 0 0 0 0 0 0 0 0 0 0 0 0
0 0 0 0 0 0 0 0 0 0 0 0 0 0 0 0 0 0 0 0 0 0 0 0 0 0 0 0 0 0 0 0 0 0 0 0 0 0 0 0 0 0 0 0
0 0 0 0 0 0 0 0 0 0 0 0 0 0 0 0 0 0 0 0 0 0 0 0 0 0 0 0 0 0 0 0 0 0 0 0 0 0 0 0 0 0 0 0
0 0 0 0 0 0 0 0 0 0 0 0 0 0 0 0 0 0 0 0 0 0 0 0 0 0 0 0 0 0 0 0 0 0 0 0 0 0 0 0 0 0 0 0
0 0 0 0 0 0 0 0 0 0 0 0 0 0 0 0 0 0 0 0 0 0 0 0 0 0 0 0 0 0 0 0 0 0 0 0 0 0 0 0 0 0 0 0
0 0 0 0 0 0 0 0 0 0 0 0 0 0 0 0 0 0 0 0 0 0 0 0 0 0 0 0 0 0 0 0 0 0 0 0 0 0 0 0 0 0 0 0
0 0 0 0 0 0 0 0 0 0 0 0 0 0 0 0 0 0 0 0 0 0 0 0 0 0 0 0 0 0 0 0 0 0 0 0 0 0 0 0 0 0 0 0
0 0 0 0 0 0 0 0 0 0 0 0 0 0 0 0 0 0 0 0 0 0 0 0 0 0 0 0 0 0 0 0 0 0 0 0 0 0 0 0 0 0 0 0
0 0 0 0 0 0 0 0 0 0 0 0 0 0 0 0 0 0 0 0 0 0 0 0 0 0 0 0 0 0 0 0 0 0 0 0 0 0 0 0 0 0 0 0
0 0 0 0 0 0 0 0 0 0 0 0 0 0 0 0 0 0 0 0 0 0 0 0 0 0 0 0 0 0 0 0 0 0 0 0 0 0 0 0 0 0 0 0
0 0 0 0 0 0 0 0 0 0 0 0 0 0 0 0 0 0 0 0 0 0 0 0 0 0 0 0 0 0 0 0 0 0 0 0 0 0 0 0 0 0 0 0
0 0 0 0 0 0 0 0 0 0 0 0 0 0 0 0 0 0 0 0 0 0 0 0 0 0 0 0 0 0 0 0 0 0 0 0 0 0 0 0 0 0 0 0
0 0 0 0 0 0 0 0 0 0 0 0 0 0 0 0 0 0 0 0 0 0 0 0 0 0 0 0 0 0 0 0 0 0 0 0 0 0 0 0 0 0 0 0
0 0 0 0 0 0 0 -0 0 0 0 0 0 0 0 0 0 0 0 0 0 0 0 0 0 0 0 0 0 0 0 0 0 0 0 0 0 0 0 0 0 0 0 0
0 0 0 0 0 0 0 0 0 0 0 0 0 0 0 0 0 0 0 0 0 0 0 0 0 0 0 0 0 0 0 0 0 0 0 0 0 0 0 0 0 0 0 0
0 0 0 0 -0 -0 0 0 0 0 0 0 0 0 0 0 0 0 0 0 0 0 0 0 0 0 0 0 0 0 0 0 0 0 0 0 0 0 0 0 0 0 0 0
0 0 0 0 0 0 0 0 0 0 0 0 0 0 0 0 0 0 0 0 0 0 0 0 0 0 0 0 0 0 0 0 0 0 0 0 0 0 0 0 0 0 0 0
0 0 0 0 0 0 0 0 0 0 0 0 0 0 0 0 0 0 0 0 0 0 0 0 0 0 0 0 0 0 0 0 0 0 0 0 0 0 0 0 0 0 0 0
0 0 0 0 0 0 0 0 0 0 0 0 0 0 0 0 0 0 0 0 0 0 0 0 0 0 0 0 0 0 0 0 0 0 0 0 0 0 0 0 0 0 0 0
0 0 0 0 0 0 0 0 0 0 0 0 0 0 0 0 0 0 0 0 0 0 0 0 0 0 0 0 0 0 0 0 0 0 0 0 0 0 0 0 0 0 0 0
Wind_Speed
4 3 2 4 6 7 8 8 8 8 9 10 6 5 3 2 2 1 1 1 1 1 1 1 1 1 1 1 1 2 2 1 1 1 1 1 1 1 1 1 1 1 0 1
2 2 3 5 7 9 10 8 9 8 12 7 3 2 3 3 3 3 3 3 2 2 2 2 2 2 1 1 1 1 2 1 1 1 1 1 1 0 0 0 0 0 0 1
3 3 2 8 9 10 7 7 8 11 11 4 3 4 5 5 4 5 4 3 3 3 3 3 3 3 2 2 1 2 2 1 1 1 0 0 0 1 0 0 0 0 1 1
1 1 7 8 2 6 7 7 8 7 6 5 6 5 4 4 5 5 4 4 4 3 3 2 2 2 2 2 2 2 1 1 1 1 1 0 1 0 0 0 0 0 1 1
3 3 9 7 3 4 5 7 7 9 8 5 2 2 3 3 4 5 5 4 4 3 3 2 2 2 2 2 2 2 1 1 1 1 1 1 1 1 0 0 0 1 1 1
4 3 8 6 1 2 3 6 4 6 6 4 2 1 5 2 2 3 2 2 2 1 2 2 2 3 3 2 2 2 2 2 2 2 2 2 1 1 0 0 1 1 1 1
5 5 10 5 1 4 4 7 2 3 4 4 5 6 4 2 2 2 1 1 1 2 2 2 2 3 3 2 3 2 1 1 1 1 2 2 1 1 1 1 0 1 1 2
5 5 10 2 5 6 6 1 1 2 2 3 4 4 3 3 3 2 1 1 1 1 1 1 2 3 3 3 2 1 1 1 1 1 1 1 1 1 1 1 1 1 1 2
9 8 3 4 5 3 1 2 2 2 2 3 3 4 3 3 3 2 2 1 1 1 1 1 1 3 3 2 1 1 1 1 1 1 1 1 2 2 1 1 1 1 1 2
5 7 5 4 4 3 2 3 2 2 2 2 3 3 3 3 2 2 2 1 1 1 1 1 1 1 2 2 1 2 1 1 1 1 1 1 1 2 2 2 2 2 2 2
5 6 4 4 4 4 3 2 2 2 2 2 2 3 3 3 2 2 2 1 1 2 2 2 1 1 1 1 2 2 1 2 1 1 2 2 2 2 2 3 3 3 2 2
7 5 5 4 3 2 2 3 3 2 2 2 2 3 2 2 2 1 1 1 1 1 2 2 1 1 1 1 2 2 2 2 2 1 2 2 1 1 3 4 5 5 5 4
4 2 3 3 1 1 1 2 1 2 2 2 2 2 2 2 1 1 1 1 2 2 2 2 1 2 2 1 2 2 3 2 2 2 2 2 2 2 2 2 3 4 5 5
3 1 1 2 2 1 1 1 0 0 1 1 1 1 1 1 1 1 2 2 2 1 1 2 2 2 2 2 2 2 2 3 3 2 2 2 2 2 2 2 2 2 3 5
2 3 3 1 1 1 1 1 1 1 1 1 1 0 0 1 2 2 2 1 0 1 1 1 2 3 2 2 2 2 2 2 2 2 2 2 2 2 2 2 2 2 2 3
1 1 1 1 1 1 1 0 1 2 2 1 1 1 1 1 1 1 1 0 0 2 2 2 3 3 2 2 2 2 2 3 3 2 2 2 2 2 2 2 2 2 2 2
2 2 2 2 2 2 2 2 2 2 2 1 2 1 0 1 1 1 2 1 1 2 2 3 3 3 2 2 2 2 2 2 3 2 2 2 2 2 2 2 2 2 2 3
3 3 3 4 3 2 2 2 1 1 2 2 1 0 0 1 1 2 2 2 2 3 3 3 2 2 2 2 2 1 1 2 2 2 2 2 2 2 2 2 2 3 3 3
0 1 1 1 2 2 2 2 1 1 1 0 1 1 1 1 2 2 1 1 1 3 3 2 3 2 1 2 1 1 1 1 1 2 2 3 2 2 2 2 2 3 3 3
1 1 1 0 0 0 1 1 0 0 0 0 1 0 1 1 1 1 1 2 3 3 3 3 2 2 2 2 1 1 1 1 1 1 1 1 2 2 2 2 2 2 3 3
0 1 1 0 1 1 0 0 0 0 1 0 1 1 2 2 1 1 1 2 3 2 2 3 2 2 2 2 1 1 1 1 1 2 2 2 2 2 2 2 2 3 3 3
0 0 0 0 0 1 1 0 0 0 0 1 1 1 1 1 1 2 2 3 3 4 2 1 2 3 3 2 1 1 1 1 2 1 2 2 2 2 2 2 2 3 3 3
0 0 0 0 0 1 1 1 0 0 0 1 1 1 1 2 1 1 3 2 2 4 2 1 3 4 3 1 1 1 1 2 2 2 2 2 2 2 2 3 3 3 3 3
0 0 0 0 1 1 1 1 1 1 1 1 1 1 1 1 2 2 2 4 5 5 2 3 5 4 3 1 1 1 1 1 2 2 2 2 2 2 2 2 3 3 3 4
0 0 0 1 0 0 1 1 1 1 1 1 2 2 1 1 2 2 2 3 4 4 2 4 4 4 2 1 1 1 1 2 2 1 2 2 2 2 2 3 3 3 3 3
0 0 1 1 1 1 1 0 0 1 1 1 2 2 2 2 1 2 2 2 3 4 3 2 2 2 1 1 1 1 1 2 2 2 2 2 2 3 3 3 4 3 3 3
1 0 0 1 1 0 0 0 0 1 1 1 2 2 2 2 2 2 2 2 2 2 2 2 2 1 1 1 1 1 1 1 1 2 2 2 2 3 3 3 3 3 3 3
Wind_Direction
250 266 223 224 223 203 206 211 218 241 241 251 246 250 273 290 292 279 250 215 203 203 217 194 168 171 176 185 173 157 144 150 193 187 153 150 149 158 151 155 201 211 238 277
273 275 257 253 239 221 225 228 236 255 262 253 248 231 253 252 236 236 247 240 230 214 203 203 199 202 196 199 195 164 158 176 181 128 116 145 159 149 104 87 341 45 286 278
258 306 342 264 228 208 212 211 201 228 244 238 236 232 234 234 227 230 237 242 235 229 219 213 208 199 200 208 183 163 165 168 156 136 119 126 138 107 96 68 94 344 302 283
177 64 241 250 215 200 209 232 219 234 250 234 234 248 247 233 227 235 235 233 236 232 228 218 207 198 195 180 166 164 172 178 171 153 151 136 123 125 71 97 255 268 290 286
153 226 274 286 239 182 191 257 225 226 244 252 265 340 292 247 226 231 231 230 228 222 213 195 196 189 165 162 160 167 191 198 197 185 188 188 198 230 241 212 289 269 278 274
156 196 243 254 220 172 117 282 246 207 230 237 143 238 268 278 245 253 258 248 229 195 172 182 200 170 158 173 176 203 215 217 206 193 195 210 215 228 240 254 267 285 304 293
187 225 261 256 200 127 166 247 255 193 208 192 198 222 265 308 289 271 275 273 192 166 180 200 188 162 170 184 212 226 217 203 203 201 202 210 214 219 199 229 276 297 299 299
171 210 250 198 143 185 217 263 207 199 198 203 237 269 287 293 295 300 306 310 167 166 208 205 174 164 184 218 229 195 173 187 219 224 223 206 187 214 209 194 205 269 290 308
195 216 248 184 201 226 195 219 235 216 219 210 250 270 287 292 290 288 277 260 204 171 199 229 191 176 194 232 194 164 167 207 233 250 250 224 206 212 215 201 207 245 257 281
247 261 255 247 256 269 240 239 256 244 230 206 238 261 276 279 282 282 275 250 201 164 194 246 232 210 206 208 180 165 198 226 233 230 251 244 232 220 215 216 220 233 243 261
248 268 294 271 240 246 254 255 261 270 239 228 234 262 258 263 265 266 280 283 212 200 221 248 252 253 234 204 178 185 214 229 236 236 234 242 243 233 231 227 222 226 231 238
224 219 200 237 238 214 219 245 241 244 286 277 227 243 259 267 267 259 257 265 251 246 242 250 247 262 264 232 197 191 220 231 227 233 234 235 242 279 270 259 262 259 255 255
230 219 209 242 264 218 216 247 242 222 232 262 265 231 235 262 277 276 262 248 238 238 241 249 256 270 277 256 223 209 220 230 231 235 233 233 233 239 278 296 283 277 278 282
234 199 247 244 245 279 246 256 282 319 287 263 266 263 224 269 279 264 260 261 250 236 241 252 261 273 275 254 237 232 229 238 240 236 235 232 234 238 243 258 285 297 299 298
244 219 217 237 306 347 13 65 53 329 327 339 356 326 220 232 257 273 287 306 286 244 252 255 267 279 281 255 245 238 234 235 235 235 236 232 232 238 246 251 260 283 303 306
241 229 192 200 242 276 314 238 242 273 288 295 306 292 270 255 271 301 317 324 201 254 265 263 268 277 275 257 251 244 239 248 248 233 227 228 229 234 241 245 252 263 275 285
161 198 205 227 245 260 255 244 236 250 267 271 276 287 339 29 5 337 330 327 294 282 276 268 272 282 274 250 231 236 241 249 255 251 230 225 228 237 242 242 247 261 268 279
207 211 200 200 210 233 262 263 254 256 251 254 273 129 158 213 257 278 296 322 332 322 301 280 279 283 274 256 229 225 227 232 231 231 233 233 236 236 237 240 250 263 274 280
196 207 217 218 214 207 230 251 261 260 265 219 184 221 247 253 261 274 283 305 303 297 299 300 303 310 286 274 262 221 222 234 245 247 241 250 259 246 240 245 255 264 272 278
43 44 65 10 360 190 230 273 295 313 301 187 177 231 291 286 281 283 290 279 264 267 283 293 293 283 276 270 274 221 223 233 242 253 252 244 247 251 251 256 262 265 268 272
34 33 39 11 334 327 277 193 138 302 316 158 188 229 257 284 284 262 269 295 298 295 285 294 302 282 271 267 260 233 230 235 242 247 247 248 249 254 256 260 265 270 271 273
278 316 315 315 331 334 338 2 114 155 6 358 334 313 303 307 303 288 260 258 282 303 308 288 283 285 289 282 235 230 241 247 251 248 246 252 253 258 262 264 268 274 277 277
236 236 257 291 277 303 344 3 16 145 250 280 287 283 270 269 269 270 293 295 291 300 312 289 293 302 309 309 259 240 248 257 257 249 245 247 251 254 259 265 270 275 278 279
202 323 310 328 85 70 358 333 337 326 284 286 281 267 260 284 298 275 273 299 312 313 315 306 310 316 330 345 308 279 268 266 267 263 261 259 258 260 261 266 272 275 275 277
167 153 73 88 86 283 286 319 351 358 357 338 324 313 288 252 259 290 303 300 312 328 325 319 328 338 351 332 302 283 275 267 263 262 259 264 268 269 270 271 272 277 279 278
145 229 239 228 235 256 267 258 281 315 341 334 329 327 325 320 306 302 310 316 320 329 333 326 326 333 338 325 303 290 285 290 293 287 277 273 273 274 275 277 277 276 277 278
39 31 14 358 340 291 261 250 254 285 285 282 302 313 322 327 330 330 330 331 330 328 325 326 328 329 331 327 320 312 303 295 285 279 278 277 276 275 276 276 278 279 280 281